Year,Month,Day,Hour,Minute,Value (Times are PST for barometer in hPa)
2013,01,15,03,19,1039.50
2013,01,15,03,20,1039.50
2013,01,15,03,21,1039.84
2013,01,15,03,22,1039.84
2013,01,15,03,23,1039.84
2013,01,15,03,25,1039.84
2013,01,15,03,26,1039.84
2013,01,15,03,27,1039.84
2013,01,15,03,28,1039.84
2013,01,15,03,30,1039.84
2013,01,15,03,31,1039.84
2013,01,15,03,32,1039.84
2013,01,15,03,33,1039.84
2013,01,15,03,34,1039.84
2013,01,15,03,35,1039.84
2013,01,15,03,36,1039.84
2013,01,15,03,37,1039.84
2013,01,15,03,38,1039.84
2013,01,15,03,39,1039.84
2013,01,15,03,40,1039.84
2013,01,15,03,41,1039.84
2013,01,15,03,42,1039.84
2013,01,15,03,43,1039.84
2013,01,15,03,44,1039.84
2013,01,15,03,46,1039.84
2013,01,15,03,47,1039.84
2013,01,15,03,48,1039.84
2013,01,15,03,49,1039.84
2013,01,15,03,50,1039.84
2013,01,15,03,51,1039.84
2013,01,15,03,52,1039.84
2013,01,15,03,53,1039.84
2013,01,15,03,54,1039.84
2013,01,15,03,55,1039.84
2013,01,15,03,56,1039.84
2013,01,15,03,57,1039.84
2013,01,15,03,58,1039.84
2013,01,15,03,59,1039.84
2013,01,15,04,00,1039.84
2013,01,15,04,01,1039.84
2013,01,15,04,02,1039.84
2013,01,15,04,03,1039.84
2013,01,15,04,04,1039.84
2013,01,15,04,05,1039.84
2013,01,15,04,06,1039.84
2013,01,15,04,07,1039.84
2013,01,15,04,08,1039.84
2013,01,15,04,09,1039.84
2013,01,15,04,10,1039.84
2013,01,15,04,11,1039.84
2013,01,15,04,12,1039.84
2013,01,15,04,13,1039.84
2013,01,15,04,14,1039.84
2013,01,15,04,15,1039.84
2013,01,15,04,16,1039.84
2013,01,15,04,17,1039.84
2013,01,15,04,18,1039.84
2013,01,15,04,19,1039.84
2013,01,15,04,20,1039.84
2013,01,15,04,21,1039.84
2013,01,15,04,23,1039.84
2013,01,15,04,24,1039.84
2013,01,15,04,25,1039.84
2013,01,15,04,26,1039.84
2013,01,15,04,27,1039.84
2013,01,15,04,28,1039.84
2013,01,15,04,29,1039.84
2013,01,15,04,30,1039.84
2013,01,15,04,31,1039.84
2013,01,15,04,33,1039.84
2013,01,15,04,34,1039.84
2013,01,15,04,35,1039.84
2013,01,15,04,36,1039.84
2013,01,15,04,37,1039.84
2013,01,15,04,38,1039.84
2013,01,15,04,39,1039.84
2013,01,15,04,40,1039.84
2013,01,15,04,41,1039.84
2013,01,15,04,43,1039.84
2013,01,15,04,44,1039.84
2013,01,15,04,45,1039.84
2013,01,15,04,46,1039.84
2013,01,15,04,48,1039.84
2013,01,15,04,49,1039.84
2013,01,15,04,50,1039.84
2013,01,15,04,51,1039.84
2013,01,15,04,53,1039.84
2013,01,15,04,54,1039.84
2013,01,15,04,55,1039.84
2013,01,15,04,57,1039.84
2013,01,15,04,58,1039.84
2013,01,15,04,59,1039.84
2013,01,15,05,00,1039.84
2013,01,15,05,02,1039.84
2013,01,15,05,03,1039.84
2013,01,15,05,04,1039.84
2013,01,15,05,05,1039.84
2013,01,15,05,06,1039.84
2013,01,15,05,07,1039.84
2013,01,15,05,08,1039.84
2013,01,15,05,09,1039.84
2013,01,15,05,11,1039.84
2013,01,15,05,12,1039.84
2013,01,15,05,13,1039.84
2013,01,15,05,15,1039.84
2013,01,15,05,16,1039.84
2013,01,15,05,17,1039.84
2013,01,15,05,18,1039.84
2013,01,15,05,20,1039.84
2013,01,15,05,21,1039.84
2013,01,15,05,22,1039.84
2013,01,15,05,23,1039.84
2013,01,15,05,25,1039.84
2013,01,15,05,26,1039.50
2013,01,15,05,27,1039.84
2013,01,15,05,29,1039.84
2013,01,15,05,30,1039.84
2013,01,15,05,31,1039.84
2013,01,15,05,32,1039.84
2013,01,15,05,33,1039.84
2013,01,15,05,35,1039.84
2013,01,15,05,36,1039.84
2013,01,15,05,37,1039.84
2013,01,15,05,38,1039.84
2013,01,15,05,39,1039.84
2013,01,15,05,40,1039.84
2013,01,15,05,41,1039.84
2013,01,15,05,42,1039.84
2013,01,15,05,43,1039.84
2013,01,15,05,44,1039.84
2013,01,15,05,45,1039.84
2013,01,15,05,46,1039.84
2013,01,15,05,47,1039.84
2013,01,15,05,48,1039.84
2013,01,15,05,49,1039.84
2013,01,15,05,51,1039.84
2013,01,15,05,52,1039.84
2013,01,15,05,53,1039.84
2013,01,15,05,54,1039.84
2013,01,15,05,56,1039.84
2013,01,15,05,57,1039.84
2013,01,15,05,58,1039.84
2013,01,15,05,59,1039.84
2013,01,15,06,01,1039.84
2013,01,15,06,02,1040.18
2013,01,15,06,03,1040.18
2013,01,15,06,04,1040.18
2013,01,15,06,05,1040.18
2013,01,15,06,06,1040.18
2013,01,15,06,07,1040.18
2013,01,15,06,08,1040.18
2013,01,15,06,09,1040.18
2013,01,15,06,11,1040.18
2013,01,15,06,12,1040.18
2013,01,15,06,13,1040.18
2013,01,15,06,14,1040.18
2013,01,15,06,15,1040.18
2013,01,15,06,16,1040.18
2013,01,15,06,17,1040.18
2013,01,15,06,18,1040.18
2013,01,15,06,19,1040.18
2013,01,15,06,20,1040.18
2013,01,15,06,21,1040.52
2013,01,15,06,22,1040.18
2013,01,15,06,23,1040.18
2013,01,15,06,25,1040.52
2013,01,15,06,26,1040.52
2013,01,15,06,27,1040.52
2013,01,15,06,28,1040.52
2013,01,15,06,29,1040.52
2013,01,15,06,31,1040.52
2013,01,15,06,32,1040.52
2013,01,15,06,33,1040.52
2013,01,15,06,35,1040.52
2013,01,15,06,36,1040.52
2013,01,15,06,37,1040.52
2013,01,15,06,38,1040.52
2013,01,15,06,40,1040.52
2013,01,15,06,41,1040.52
2013,01,15,06,42,1040.52
2013,01,15,06,44,1040.52
2013,01,15,06,45,1040.52
2013,01,15,06,46,1040.52
2013,01,15,06,47,1040.52
2013,01,15,06,49,1040.52
2013,01,15,06,50,1040.52
2013,01,15,06,51,1040.52
2013,01,15,06,52,1040.52
2013,01,15,06,53,1040.52
2013,01,15,06,54,1040.52
2013,01,15,06,55,1040.52
2013,01,15,06,56,1040.52
2013,01,15,06,58,1040.52
2013,01,15,06,59,1040.52
2013,01,15,07,00,1040.52
2013,01,15,07,01,1040.52
2013,01,15,07,02,1040.52
2013,01,15,07,03,1040.52
2013,01,15,07,04,1040.52
2013,01,15,07,05,1040.52
2013,01,15,07,07,1040.52
2013,01,15,07,08,1040.52
2013,01,15,07,09,1040.52
2013,01,15,07,10,1040.52
2013,01,15,07,12,1040.52
2013,01,15,07,13,1040.52
2013,01,15,07,14,1040.52
2013,01,15,07,15,1040.52
2013,01,15,07,17,1040.86
2013,01,15,07,18,1040.86
2013,01,15,07,19,1040.86
2013,01,15,07,20,1040.86
2013,01,15,07,22,1040.86
2013,01,15,07,23,1040.86
2013,01,15,07,24,1040.86
2013,01,15,07,25,1040.86
2013,01,15,07,26,1040.86
2013,01,15,07,27,1040.86
2013,01,15,07,28,1040.86
2013,01,15,07,30,1040.86
2013,01,15,07,31,1040.86
2013,01,15,07,32,1040.86
2013,01,15,07,33,1040.86
2013,01,15,07,35,1040.86
2013,01,15,07,36,1040.86
2013,01,15,07,37,1040.86
2013,01,15,07,39,1040.86
2013,01,15,07,40,1040.86
2013,01,15,07,41,1041.19
2013,01,15,07,42,1041.19
2013,01,15,07,43,1041.19
2013,01,15,07,44,1041.19
2013,01,15,07,45,1041.19
2013,01,15,07,46,1041.19
2013,01,15,07,47,1041.19
2013,01,15,07,48,1041.19
2013,01,15,07,49,1041.19
2013,01,15,07,50,1041.19
2013,01,15,07,51,1041.19
2013,01,15,07,52,1041.19
2013,01,15,07,53,1041.19
2013,01,15,07,54,1041.19
2013,01,15,07,55,1041.19
2013,01,15,07,56,1041.19
2013,01,15,07,57,1041.19
2013,01,15,07,58,1041.19
2013,01,15,07,59,1041.53
2013,01,15,08,00,1041.53
2013,01,15,08,01,1041.53
2013,01,15,08,02,1041.53
2013,01,15,08,03,1041.53
2013,01,15,08,04,1041.53
2013,01,15,08,05,1041.53
2013,01,15,08,06,1041.53
2013,01,15,08,07,1041.53
2013,01,15,08,08,1041.53
2013,01,15,08,09,1041.53
2013,01,15,08,10,1041.53
2013,01,15,08,11,1041.53
2013,01,15,08,13,1041.53
2013,01,15,08,14,1041.53
2013,01,15,08,15,1041.53
2013,01,15,08,16,1041.53
2013,01,15,08,17,1041.53
2013,01,15,08,18,1041.53
2013,01,15,08,19,1041.53
2013,01,15,08,20,1041.53
2013,01,15,08,22,1041.53
2013,01,15,08,23,1041.53
2013,01,15,08,24,1041.53
2013,01,15,08,25,1041.53
2013,01,15,08,27,1041.53
2013,01,15,08,28,1041.53
2013,01,15,08,29,1041.53
2013,01,15,08,30,1041.53
2013,01,15,08,32,1041.87
2013,01,15,08,33,1041.53
2013,01,15,08,34,1041.87
2013,01,15,08,35,1041.87
2013,01,15,08,36,1041.87
2013,01,15,08,37,1041.53
2013,01,15,08,38,1041.53
2013,01,15,08,39,1041.87
2013,01,15,08,40,1041.87
2013,01,15,08,41,1041.87
2013,01,15,08,42,1041.53
2013,01,15,08,43,1041.53
2013,01,15,08,44,1041.87
2013,01,15,08,46,1041.87
2013,01,15,08,47,1041.87
2013,01,15,08,48,1041.53
2013,01,15,08,49,1041.87
2013,01,15,08,50,1041.87
2013,01,15,08,51,1041.87
2013,01,15,08,52,1041.87
2013,01,15,08,53,1041.87
2013,01,15,08,54,1041.87
2013,01,15,08,56,1041.87
2013,01,15,08,57,1041.87
2013,01,15,08,58,1041.87
2013,01,15,08,59,1041.87
2013,01,15,09,01,1041.87
2013,01,15,09,02,1041.87
2013,01,15,09,03,1041.87
2013,01,15,09,04,1041.87
2013,01,15,09,06,1041.87
2013,01,15,09,07,1041.87
2013,01,15,09,08,1041.87
2013,01,15,09,10,1041.87
2013,01,15,09,11,1041.87
2013,01,15,09,12,1041.87
2013,01,15,09,14,1041.87
2013,01,15,09,15,1041.87
2013,01,15,09,16,1041.87
2013,01,15,09,17,1041.87
2013,01,15,09,18,1041.87
2013,01,15,09,20,1041.87
2013,01,15,09,21,1041.87
2013,01,15,09,22,1041.87
2013,01,15,09,24,1041.87
2013,01,15,09,25,1041.87
2013,01,15,09,26,1041.87
2013,01,15,09,27,1042.21
2013,01,15,09,28,1042.21
2013,01,15,09,29,1042.21
2013,01,15,09,31,1042.21
2013,01,15,09,32,1042.21
2013,01,15,09,33,1042.21
2013,01,15,09,35,1042.21
2013,01,15,09,36,1042.21
2013,01,15,09,37,1041.87
2013,01,15,09,38,1041.87
2013,01,15,09,39,1042.21
2013,01,15,09,40,1042.21
2013,01,15,09,41,1042.21
2013,01,15,09,42,1042.21
2013,01,15,09,43,1042.21
2013,01,15,09,45,1042.21
2013,01,15,09,46,1042.21
2013,01,15,09,47,1041.87
2013,01,15,09,48,1042.21
2013,01,15,09,50,1042.21
2013,01,15,09,51,1042.21
2013,01,15,09,52,1042.21
2013,01,15,09,53,1042.21
2013,01,15,09,54,1042.21
2013,01,15,09,55,1042.21
2013,01,15,09,56,1042.21
2013,01,15,09,57,1042.21
2013,01,15,09,59,1042.21
2013,01,15,10,00,1042.21
2013,01,15,10,01,1042.21
2013,01,15,10,02,1042.21
2013,01,15,10,03,1042.21
2013,01,15,10,04,1042.21
2013,01,15,10,05,1042.21
2013,01,15,10,06,1042.21
2013,01,15,10,07,1042.21
2013,01,15,10,08,1042.21
2013,01,15,10,09,1042.21
2013,01,15,10,10,1042.21
2013,01,15,10,11,1042.21
2013,01,15,10,12,1042.21
2013,01,15,10,13,1042.21
2013,01,15,10,14,1042.21
2013,01,15,10,15,1042.21
2013,01,15,10,16,1042.21
2013,01,15,10,17,1042.21
2013,01,15,10,18,1042.21
2013,01,15,10,19,1042.21
2013,01,15,10,20,1042.21
2013,01,15,10,21,1042.21
2013,01,15,10,22,1042.21
2013,01,15,10,23,1042.21
2013,01,15,10,25,1042.21
2013,01,15,10,26,1042.21
2013,01,15,10,27,1042.21
2013,01,15,10,28,1042.21
2013,01,15,10,30,1042.21
2013,01,15,10,31,1042.21
2013,01,15,10,32,1042.21
2013,01,15,10,34,1042.21
2013,01,15,10,35,1042.21
2013,01,15,10,36,1042.55
2013,01,15,10,37,1042.55
2013,01,15,10,38,1042.55
2013,01,15,10,39,1042.55
2013,01,15,10,40,1042.55
2013,01,15,10,41,1042.55
2013,01,15,10,42,1042.55
2013,01,15,10,44,1042.55
2013,01,15,10,45,1042.55
2013,01,15,10,46,1042.55
2013,01,15,10,47,1042.55
2013,01,15,10,48,1042.55
2013,01,15,10,49,1042.55
2013,01,15,10,50,1042.55
2013,01,15,10,51,1042.55
2013,01,15,10,52,1042.55
2013,01,15,10,53,1042.55
2013,01,15,10,54,1042.55
2013,01,15,10,55,1042.55
2013,01,15,10,56,1042.55
2013,01,15,10,57,1042.55
2013,01,15,10,58,1042.55
2013,01,15,10,59,1042.55
2013,01,15,11,00,1042.55
2013,01,15,11,01,1042.55
2013,01,15,11,02,1042.55
2013,01,15,11,03,1042.55
2013,01,15,11,04,1042.55
2013,01,15,11,05,1042.55
2013,01,15,11,06,1042.55
2013,01,15,11,07,1042.55
2013,01,15,11,08,1042.55
2013,01,15,11,09,1042.55
2013,01,15,11,10,1042.55
2013,01,15,11,11,1042.55
2013,01,15,11,12,1042.55
2013,01,15,11,13,1042.55
2013,01,15,11,15,1042.55
2013,01,15,11,16,1042.55
2013,01,15,11,17,1042.55
2013,01,15,11,18,1042.55
2013,01,15,11,19,1042.55
2013,01,15,11,20,1042.55
2013,01,15,11,21,1042.55
2013,01,15,11,22,1042.55
2013,01,15,11,23,1042.55
2013,01,15,11,24,1042.55
2013,01,15,11,25,1042.55
2013,01,15,11,26,1042.55
2013,01,15,11,27,1042.55
2013,01,15,11,28,1042.55
2013,01,15,11,29,1042.21
2013,01,15,11,30,1042.55
2013,01,15,11,31,1042.55
2013,01,15,11,32,1042.55
2013,01,15,11,33,1042.55
2013,01,15,11,35,1042.55
2013,01,15,11,36,1042.21
2013,01,15,11,37,1042.21
2013,01,15,11,38,1042.21
2013,01,15,11,39,1042.21
2013,01,15,11,41,1042.21
2013,01,15,11,42,1042.55
2013,01,15,11,43,1042.55
2013,01,15,11,44,1042.55
2013,01,15,11,46,1042.55
2013,01,15,11,47,1042.55
2013,01,15,11,48,1042.55
2013,01,15,11,49,1042.55
2013,01,15,11,50,1042.55
2013,01,15,11,51,1042.21
2013,01,15,11,52,1042.55
2013,01,15,11,53,1042.21
2013,01,15,11,54,1042.55
2013,01,15,11,56,1042.55
2013,01,15,11,57,1042.21
2013,01,15,11,58,1042.21
2013,01,15,11,59,1042.21
2013,01,15,12,01,1042.21
2013,01,15,12,02,1042.21
2013,01,15,12,03,1042.21
2013,01,15,12,05,1042.21
2013,01,15,12,06,1042.21
2013,01,15,12,07,1042.21
2013,01,15,12,08,1042.21
2013,01,15,12,09,1042.21
2013,01,15,12,10,1042.21
2013,01,15,12,11,1042.21
2013,01,15,12,13,1042.21
2013,01,15,12,14,1042.21
2013,01,15,12,15,1042.21
2013,01,15,12,16,1042.21
2013,01,15,12,18,1042.21
2013,01,15,12,19,1042.21
2013,01,15,12,22,1042.21
2013,01,15,12,23,1042.21
2013,01,15,12,24,1042.21
2013,01,15,12,25,1042.21
2013,01,15,12,27,1042.21
2013,01,15,12,28,1042.21
2013,01,15,12,29,1042.21
2013,01,15,12,31,1042.21
2013,01,15,12,32,1042.21
2013,01,15,12,33,1042.21
2013,01,15,12,34,1042.21
2013,01,15,12,36,1042.21
2013,01,15,12,37,1042.21
2013,01,15,12,38,1042.21
2013,01,15,12,40,1042.21
2013,01,15,12,41,1042.21
2013,01,15,12,42,1042.21
2013,01,15,12,43,1042.21
2013,01,15,12,44,1042.21
2013,01,15,12,46,1041.87
2013,01,15,12,47,1041.87
2013,01,15,12,48,1041.87
2013,01,15,12,50,1041.87
2013,01,15,12,51,1041.87
2013,01,15,12,52,1041.87
2013,01,15,12,54,1041.87
2013,01,15,12,55,1041.87
2013,01,15,12,56,1041.87
2013,01,15,12,57,1041.87
2013,01,15,12,58,1041.87
2013,01,15,12,59,1041.87
2013,01,15,13,00,1041.87
2013,01,15,13,01,1041.87
2013,01,15,13,02,1041.87
2013,01,15,13,04,1041.87
2013,01,15,13,05,1041.87
2013,01,15,13,06,1041.53
2013,01,15,13,07,1041.53
2013,01,15,13,09,1041.87
2013,01,15,13,10,1041.87
2013,01,15,13,11,1041.87
2013,01,15,13,12,1041.87
2013,01,15,13,14,1041.87
2013,01,15,13,15,1041.87
2013,01,15,13,16,1041.87
2013,01,15,13,17,1041.53
2013,01,15,13,19,1041.53
2013,01,15,13,20,1041.87
2013,01,15,13,21,1041.53
2013,01,15,13,23,1041.53
2013,01,15,13,24,1041.53
2013,01,15,13,25,1041.53
2013,01,15,13,26,1041.53
2013,01,15,13,27,1041.53
2013,01,15,13,29,1041.53
2013,01,15,13,30,1041.87
2013,01,15,13,31,1041.87
2013,01,15,13,32,1041.87
2013,01,15,13,34,1041.87
2013,01,15,13,35,1041.87
2013,01,15,13,36,1041.87
2013,01,15,13,38,1041.87
2013,01,15,13,39,1041.87
2013,01,15,13,40,1041.87
2013,01,15,13,41,1041.87
2013,01,15,13,42,1041.87
2013,01,15,13,44,1041.87
2013,01,15,13,45,1041.87
2013,01,15,13,46,1041.87
2013,01,15,13,47,1041.87
2013,01,15,13,49,1041.87
2013,01,15,13,50,1041.87
2013,01,15,13,51,1041.87
2013,01,15,13,52,1041.87
2013,01,15,13,54,1041.87
2013,01,15,13,55,1041.87
2013,01,15,13,56,1041.87
2013,01,15,13,57,1041.87
2013,01,15,13,59,1041.87
2013,01,15,14,00,1041.87
2013,01,15,14,01,1041.87
2013,01,15,14,02,1041.87
2013,01,15,14,04,1041.87
2013,01,15,14,05,1041.87
2013,01,15,14,06,1041.87
2013,01,15,14,07,1041.87
2013,01,15,14,09,1041.87
2013,01,15,14,10,1041.87
2013,01,15,14,11,1041.87
2013,01,15,14,12,1041.87
2013,01,15,14,14,1041.87
2013,01,15,14,15,1041.87
2013,01,15,14,16,1041.87
2013,01,15,14,17,1041.87
2013,01,15,14,19,1041.87
2013,01,15,14,20,1041.87
2013,01,15,14,21,1041.87
2013,01,15,14,22,1041.87
2013,01,15,14,24,1041.87
2013,01,15,14,25,1041.87
2013,01,15,14,26,1041.87
2013,01,15,14,28,1041.87
2013,01,15,14,29,1041.87
2013,01,15,14,30,1041.87
2013,01,15,14,31,1041.87
2013,01,15,14,32,1041.87
2013,01,15,14,33,1041.87
2013,01,15,14,34,1041.87
2013,01,15,14,36,1041.87
2013,01,15,14,37,1041.87
2013,01,15,14,38,1041.87
2013,01,15,14,40,1041.87
2013,01,15,14,41,1041.87
2013,01,15,14,42,1041.87
2013,01,15,14,43,1041.87
2013,01,15,14,45,1041.87
2013,01,15,14,46,1041.87
2013,01,15,14,47,1041.87
2013,01,15,14,48,1041.87
2013,01,15,14,49,1041.87
2013,01,15,14,51,1041.87
2013,01,15,14,52,1041.87
2013,01,15,14,53,1041.87
2013,01,15,14,54,1041.87
2013,01,15,14,55,1041.87
2013,01,15,14,57,1041.87
2013,01,15,14,58,1041.87
2013,01,15,14,59,1041.87
2013,01,15,15,01,1041.87
2013,01,15,15,02,1041.87
2013,01,15,15,03,1041.87
2013,01,15,15,05,1041.87
2013,01,15,15,06,1041.87
2013,01,15,15,07,1041.87
2013,01,15,15,08,1042.21
2013,01,15,15,10,1042.21
2013,01,15,15,11,1042.21
2013,01,15,15,12,1041.87
2013,01,15,15,13,1042.21
2013,01,15,15,15,1042.21
2013,01,15,15,16,1042.21
2013,01,15,15,17,1042.21
2013,01,15,15,18,1042.21
2013,01,15,15,20,1042.21
2013,01,15,15,21,1042.21
2013,01,15,15,22,1042.21
2013,01,15,15,24,1042.21
2013,01,15,15,25,1042.21
2013,01,15,15,26,1042.21
2013,01,15,15,27,1041.87
2013,01,15,15,28,1041.87
2013,01,15,15,29,1041.87
2013,01,15,15,30,1041.87
2013,01,15,15,31,1041.87
2013,01,15,15,32,1041.87
2013,01,15,15,33,1041.87
2013,01,15,15,35,1041.87
2013,01,15,15,36,1041.87
2013,01,15,15,37,1041.87
2013,01,15,15,39,1041.87
2013,01,15,15,40,1041.87
2013,01,15,15,41,1041.87
2013,01,15,15,42,1041.87
2013,01,15,15,43,1041.87
2013,01,15,15,44,1041.87
2013,01,15,15,45,1041.87
2013,01,15,15,46,1041.87
2013,01,15,15,47,1041.87
2013,01,15,15,49,1041.87
2013,01,15,15,50,1041.87
2013,01,15,15,51,1041.87
2013,01,15,15,52,1041.87
2013,01,15,15,53,1041.87
2013,01,15,15,54,1041.87
2013,01,15,15,55,1041.87
2013,01,15,15,56,1041.87
2013,01,15,15,58,1041.87
2013,01,15,15,59,1041.87
2013,01,15,16,00,1041.87
2013,01,15,16,01,1041.87
2013,01,15,16,02,1041.87
2013,01,15,16,03,1041.87
2013,01,15,16,04,1041.87
2013,01,15,16,05,1041.87
2013,01,15,16,06,1041.87
2013,01,15,16,08,1041.87
2013,01,15,16,09,1041.87
2013,01,15,16,10,1041.87
2013,01,15,16,12,1041.87
2013,01,15,16,13,1041.87
2013,01,15,16,14,1041.87
2013,01,15,16,15,1041.87
2013,01,15,16,16,1041.87
2013,01,15,16,17,1041.87
2013,01,15,16,18,1041.87
2013,01,15,16,19,1041.87
2013,01,15,16,20,1041.87
2013,01,15,16,21,1041.87
2013,01,15,16,22,1041.87
2013,01,15,16,23,1041.87
2013,01,15,16,24,1041.87
2013,01,15,16,25,1041.87
2013,01,15,16,26,1041.87
2013,01,15,16,27,1041.87
2013,01,15,16,28,1041.87
2013,01,15,16,29,1041.87
2013,01,15,16,30,1041.87
2013,01,15,16,31,1041.87
2013,01,15,16,33,1041.87
2013,01,15,16,34,1041.87
2013,01,15,16,35,1041.87
2013,01,15,16,36,1041.87
2013,01,15,16,37,1041.87
2013,01,15,16,38,1041.87
2013,01,15,16,39,1041.87
2013,01,15,16,40,1041.87
2013,01,15,16,41,1041.87
2013,01,15,16,42,1042.21
2013,01,15,16,43,1041.87
2013,01,15,16,44,1041.87
2013,01,15,16,46,1041.87
2013,01,15,16,47,1042.21
2013,01,15,16,48,1042.21
2013,01,15,16,50,1041.87
2013,01,15,16,51,1042.21
2013,01,15,16,52,1042.21
2013,01,15,16,53,1042.21
2013,01,15,16,55,1042.21
2013,01,15,16,56,1042.21
2013,01,15,16,57,1042.21
2013,01,15,16,58,1042.21
2013,01,15,17,00,1042.21
2013,01,15,17,01,1042.21
2013,01,15,17,02,1042.21
2013,01,15,17,03,1042.21
2013,01,15,17,05,1042.21
2013,01,15,17,06,1042.21
2013,01,15,17,07,1042.21
2013,01,15,17,08,1042.21
2013,01,15,17,09,1042.21
2013,01,15,17,10,1042.21
2013,01,15,17,11,1042.21
2013,01,15,17,12,1042.21
2013,01,15,17,13,1042.21
2013,01,15,17,14,1042.21
2013,01,15,17,15,1042.21
2013,01,15,17,16,1042.21
2013,01,15,17,17,1042.21
2013,01,15,17,18,1042.21
2013,01,15,17,19,1041.87
2013,01,15,17,21,1041.87
2013,01,15,17,22,1041.87
2013,01,15,17,23,1042.21
2013,01,15,17,24,1041.87
2013,01,15,17,26,1042.21
2013,01,15,17,27,1041.87
2013,01,15,17,28,1041.87
2013,01,15,17,29,1042.21
2013,01,15,17,31,1042.21
2013,01,15,17,32,1041.87
2013,01,15,17,33,1041.87
2013,01,15,17,35,1041.87
2013,01,15,17,36,1041.87
2013,01,15,17,37,1042.21
2013,01,15,17,38,1041.87
2013,01,15,17,39,1041.87
2013,01,15,17,41,1042.21
2013,01,15,17,42,1042.21
2013,01,15,17,43,1042.21
2013,01,15,17,45,1041.87
2013,01,15,17,46,1041.87
2013,01,15,17,47,1041.87
2013,01,15,17,48,1041.87
2013,01,15,17,49,1041.87
2013,01,15,17,51,1041.87
2013,01,15,17,52,1041.87
2013,01,15,17,53,1041.87
2013,01,15,17,54,1041.87
2013,01,15,17,56,1041.87
2013,01,15,17,57,1041.87
2013,01,15,17,58,1041.87
2013,01,15,17,59,1041.87
2013,01,15,18,00,1041.87
2013,01,15,18,01,1041.87
2013,01,15,18,02,1041.87
2013,01,15,18,04,1041.87
2013,01,15,18,05,1041.87
2013,01,15,18,06,1041.87
2013,01,15,18,07,1041.87
2013,01,15,18,09,1041.87
2013,01,15,18,10,1041.87
2013,01,15,18,11,1041.87
2013,01,15,18,13,1041.87
2013,01,15,18,14,1041.87
2013,01,15,18,15,1041.87
2013,01,15,18,16,1041.87
2013,01,15,18,17,1041.87
2013,01,15,18,19,1041.87
2013,01,15,18,20,1041.87
2013,01,15,18,21,1041.87
2013,01,15,18,22,1041.87
2013,01,15,18,24,1041.87
2013,01,15,18,25,1041.87
2013,01,15,18,26,1041.87
2013,01,15,18,27,1041.87
2013,01,15,18,29,1041.87
2013,01,15,18,30,1041.87
2013,01,15,18,31,1041.87
2013,01,15,18,32,1041.87
2013,01,15,18,34,1041.87
2013,01,15,18,35,1041.87
2013,01,15,18,36,1041.87
2013,01,15,18,37,1041.87
2013,01,15,18,39,1041.87
2013,01,15,18,40,1041.87
2013,01,15,18,41,1041.87
2013,01,15,18,42,1041.87
2013,01,15,18,44,1041.87
2013,01,15,18,45,1041.87
2013,01,15,18,46,1041.87
2013,01,15,18,47,1041.87
2013,01,15,18,49,1041.87
2013,01,15,18,50,1041.87
2013,01,15,18,51,1041.87
2013,01,15,18,53,1041.87
2013,01,15,18,54,1041.87
2013,01,15,18,55,1041.87
2013,01,15,18,56,1041.87
2013,01,15,18,57,1041.87
2013,01,15,18,58,1041.87
2013,01,15,18,59,1041.87
2013,01,15,19,00,1041.87
2013,01,15,19,01,1041.87
2013,01,15,19,02,1041.87
2013,01,15,19,03,1041.87
2013,01,15,19,04,1041.87
2013,01,15,19,05,1041.87
2013,01,15,19,07,1041.87
2013,01,15,19,08,1041.87
2013,01,15,19,09,1041.87
2013,01,15,19,10,1041.87
2013,01,15,19,11,1041.87
2013,01,15,19,12,1041.87
2013,01,15,19,13,1041.87
2013,01,15,19,14,1041.87
2013,01,15,19,15,1041.87
2013,01,15,19,17,1041.87
2013,01,15,19,18,1041.87
2013,01,15,19,19,1041.87
2013,01,15,19,20,1041.87
2013,01,15,19,21,1041.87
2013,01,15,19,22,1041.87
2013,01,15,19,23,1041.87
2013,01,15,19,24,1041.87
2013,01,15,19,26,1041.87
2013,01,15,19,27,1041.87
2013,01,15,19,28,1041.87
2013,01,15,19,29,1041.87
2013,01,15,19,31,1041.87
2013,01,15,19,32,1041.87
2013,01,15,19,33,1041.87
2013,01,15,19,34,1041.87
2013,01,15,19,36,1041.87
2013,01,15,19,37,1041.87
2013,01,15,19,38,1041.87
2013,01,15,19,39,1041.87
2013,01,15,19,41,1041.87
2013,01,15,19,42,1041.87
2013,01,15,19,43,1041.87
2013,01,15,19,44,1041.87
2013,01,15,19,45,1041.87
2013,01,15,19,47,1041.87
2013,01,15,19,48,1041.87
2013,01,15,19,49,1041.87
2013,01,15,19,50,1041.87
2013,01,15,19,52,1041.87
2013,01,15,19,53,1041.87
2013,01,15,19,54,1041.87
2013,01,15,19,55,1041.87
2013,01,15,19,57,1041.87
2013,01,15,19,58,1041.87
2013,01,15,19,59,1041.87
2013,01,15,20,00,1041.87
2013,01,15,20,02,1041.87
2013,01,15,20,03,1041.87
2013,01,15,20,04,1041.87
2013,01,15,20,05,1041.87
2013,01,15,20,06,1041.87
2013,01,15,20,08,1041.87
2013,01,15,20,09,1041.87
2013,01,15,20,10,1041.87
2013,01,15,20,11,1041.87
2013,01,15,20,13,1041.87
2013,01,15,20,14,1041.87
2013,01,15,20,15,1041.53
2013,01,15,20,16,1041.87
2013,01,15,20,17,1041.53
2013,01,15,20,18,1041.87
2013,01,15,20,19,1041.87
2013,01,15,20,20,1041.53
2013,01,15,20,21,1041.87
2013,01,15,20,23,1041.87
2013,01,15,20,24,1041.87
2013,01,15,20,25,1041.87
2013,01,15,20,26,1041.87
2013,01,15,20,28,1041.87
2013,01,15,20,29,1041.87
2013,01,15,20,30,1041.87
2013,01,15,20,31,1041.87
2013,01,15,20,32,1041.87
2013,01,15,20,33,1041.87
2013,01,15,20,34,1041.87
2013,01,15,20,35,1041.53
2013,01,15,20,37,1041.53
2013,01,15,20,38,1041.53
2013,01,15,20,39,1041.87
2013,01,15,20,40,1041.53
2013,01,15,20,42,1041.53
2013,01,15,20,43,1041.87
2013,01,15,20,44,1041.87
2013,01,15,20,45,1041.87
2013,01,15,20,47,1041.53
2013,01,15,20,48,1041.53
2013,01,15,20,49,1041.53
2013,01,15,20,50,1041.53
2013,01,15,20,51,1041.53
2013,01,15,20,53,1041.53
2013,01,15,20,54,1041.53
2013,01,15,20,55,1041.53
2013,01,15,20,56,1041.53
2013,01,15,20,58,1041.53
2013,01,15,20,59,1041.53
2013,01,15,21,00,1041.53
2013,01,15,21,01,1041.53
2013,01,15,21,03,1041.53
2013,01,15,21,04,1041.53
2013,01,15,21,05,1041.53
2013,01,15,21,06,1041.53
2013,01,15,21,07,1041.53
2013,01,15,21,08,1041.53
2013,01,15,21,10,1041.53
2013,01,15,21,11,1041.53
2013,01,15,21,12,1041.53
2013,01,15,21,14,1041.53
2013,01,15,21,15,1041.53
2013,01,15,21,16,1041.53
2013,01,15,21,17,1041.53
2013,01,15,21,19,1041.53
2013,01,15,21,20,1041.53
2013,01,15,21,21,1041.53
2013,01,15,21,22,1041.53
2013,01,15,21,23,1041.53
2013,01,15,21,24,1041.53
2013,01,15,21,25,1041.53
2013,01,15,21,26,1041.53
2013,01,15,21,27,1041.53
2013,01,15,21,29,1041.53
2013,01,15,21,30,1041.53
2013,01,15,21,31,1041.53
2013,01,15,21,32,1041.53
2013,01,15,21,33,1041.53
2013,01,15,21,34,1041.53
2013,01,15,21,35,1041.53
2013,01,15,21,36,1041.53
2013,01,15,21,37,1041.53
2013,01,15,21,38,1041.53
2013,01,15,21,39,1041.53
2013,01,15,21,40,1041.53
2013,01,15,21,41,1041.53
2013,01,15,21,42,1041.53
2013,01,15,21,43,1041.53
2013,01,15,21,44,1041.53
2013,01,15,21,45,1041.53
2013,01,15,21,46,1041.53
2013,01,15,21,47,1041.53
2013,01,15,21,48,1041.53
2013,01,15,21,50,1041.53
2013,01,15,21,51,1041.53
2013,01,15,21,52,1041.53
2013,01,15,21,53,1041.53